This is the latest recevied weather packets stored in our database for station/object K7FLA. If no packets are shown the sender has not sent any weather packets the latest 10 day(s).
| Time | Temp. | Humidity | Pressure | Rain* | Wind** | Luminosity | Snow |
|---|---|---|---|---|---|---|---|
| 1787836494 | 24.44° C | 43% | 1095.1 hPa | 0 mm | - | 2 W/m² | - |
| 1787836189 | 24.44° C | 43% | 1095 hPa | 0 mm | - | 1 W/m² | - |
| 1787835885 | 24.44° C | 44% | 1095 hPa | 0 mm | - | 0 W/m² | - |
| 1787835584 | 24.44° C | 43% | 1094.8 hPa | 0 mm | - | 0 W/m² | - |
| 1787835280 | 25° C | 43% | 1095.1 hPa | 0 mm | - | 0 W/m² | - |
| 1787834975 | 25° C | 43% | 1094.9 hPa | 0 mm | - | 0 W/m² | - |
| 1787834673 | 25° C | 43% | 1095 hPa | 0 mm | - | 0 W/m² | - |
| 1787834369 | 25° C | 43% | 1094.8 hPa | 0 mm | - | 0 W/m² | - |
| 1787834064 | 25° C | 43% | 1094.9 hPa | 0 mm | - | 0 W/m² | - |
| 1787833760 | 25° C | 43% | 1095 hPa | 0 mm | - | 0 W/m² | - |
| 1787833455 | 25° C | 44% | 1094.9 hPa | 0 mm | - | 0 W/m² | - |
| 1787833151 | 25° C | 43% | 1094.8 hPa | 0 mm | - | 0 W/m² | - |
| 1787832846 | 25.56° C | 45% | 1095 hPa | 0 mm | - | 0 W/m² | - |
| 1787832541 | 25.56° C | 43% | 1094.8 hPa | 0 mm | - | 0 W/m² | - |
| 1787832241 | 25.56° C | 42% | 1094.8 hPa | 0 mm | - | 0 W/m² | - |
| 1787831938 | 25.56° C | 42% | 1094.8 hPa | 0 mm | - | 0 W/m² | - |
| 1787831634 | 25.56° C | 43% | 1094.8 hPa | 0 mm | - | 0 W/m² | - |
| 1787831333 | 26.11° C | 38% | 1094.9 hPa | 0 mm | - | 0 W/m² | - |
| 1787831030 | 26.11° C | 38% | 1094.7 hPa | 0 mm | - | 0 W/m² | - |
| 1787830729 | 26.11° C | 37% | 1094.7 hPa | 0 mm | - | 0 W/m² | - |
| 1787830428 | 26.11° C | 37% | 1094.7 hPa | 0 mm | - | 0 W/m² | - |
| 1787830123 | 26.11° C | 37% | 1094.7 hPa | 0 mm | - | 0 W/m² | - |
| 1787829816 | 26.11° C | 37% | 1094.7 hPa | 0 mm | - | 0 W/m² | - |
| 1787829511 | 26.11° C | 37% | 1094.8 hPa | 0 mm | - | 0 W/m² | - |
| 1787829207 | 26.11° C | 36% | 1094.6 hPa | 0 mm | - | 0 W/m² | - |
* Rain latest hour (hover to see other rain measurements)
** Current wind speed in m/s (hover to see current wind gust speed)